EN

Hourly Weather Ovsyannikovo

Today, 19 April, Monday

Time Temperature Precipitation Wind Pressure Humidity
00:00 +4°C° 0 mm 3 mps 743 mmHg 90%
01:00 +4°C° 0 mm 3 mps 743 mmHg 91%
02:00 +4°C° 0 mm 3 mps 743 mmHg 91%
03:00 +4°C° 0.3 mm 3 mps 743 mmHg 92%
04:00 +4°C° 0.3 mm 3 mps 743 mmHg 93%
05:00 +3°C° 0.3 mm 3 mps 743 mmHg 94%
06:00 +4°C° 0.4 mm 3 mps 743 mmHg 92%
07:00 +5°C° 0.4 mm 4 mps 743 mmHg 91%
08:00 +6°C° 0.4 mm 5 mps 743 mmHg 89%
09:00 +6°C° 0.1 mm 5 mps 743 mmHg 85%
10:00 +7°C° 0.1 mm 5 mps 743 mmHg 82%
11:00 +8°C° 0.1 mm 5 mps 743 mmHg 78%
12:00 +8°C° 0.1 mm 5 mps 743 mmHg 79%
13:00 +7°C° 0.1 mm 6 mps 743 mmHg 79%
14:00 +7°C° 0.1 mm 6 mps 743 mmHg 80%
15:00 +5°C° 0 mm 6 mps 743 mmHg 83%
16:00 +4°C° 0 mm 6 mps 743 mmHg 87%
17:00 +4°C° 0 mm 6 mps 743 mmHg 90%
18:00 +3°C° 0 mm 6 mps 743 mmHg 92%
19:00 +2°C° 0 mm 5 mps 743 mmHg 94%
20:00 +2°C° 0 mm 5 mps 744 mmHg 96%
21:00 +3°C° 0.1 mm 4 mps 743 mmHg 96%
22:00 +3°C° 0.1 mm 4 mps 743 mmHg 96%
23:00 +3°C° 0.1 mm 4 mps 743 mmHg 96%

Tomorrow, 20 April, Tuesday

Time Temperature Precipitation Wind Pressure Humidity
00:00 +3°C° 0 mm 4 mps 742 mmHg 96%
01:00 +3°C° 0 mm 4 mps 742 mmHg 96%
02:00 +3°C° 0 mm 4 mps 742 mmHg 96%
03:00 +4°C° 0 mm 4 mps 742 mmHg 95%
04:00 +4°C° 0 mm 4 mps 741 mmHg 94%
05:00 +4°C° 0 mm 4 mps 741 mmHg 94%
06:00 +4°C° 0 mm 4 mps 741 mmHg 93%
07:00 +5°C° 0 mm 4 mps 741 mmHg 92%
08:00 +5°C° 0 mm 4 mps 740 mmHg 92%
09:00 +6°C° 0 mm 5 mps 740 mmHg 90%
10:00 +6°C° 0 mm 5 mps 740 mmHg 89%
11:00 +7°C° 0 mm 6 mps 740 mmHg 88%
12:00 +7°C° 0 mm 6 mps 739 mmHg 86%
13:00 +7°C° 0 mm 6 mps 739 mmHg 84%
14:00 +6°C° 0 mm 7 mps 738 mmHg 83%
15:00 +6°C° 0.3 mm 7 mps 737 mmHg 86%
16:00 +5°C° 0.3 mm 7 mps 736 mmHg 89%
17:00 +4°C° 0.3 mm 7 mps 736 mmHg 92%
18:00 +3°C° 2.2 mm 7 mps 735 mmHg 93%
19:00 +2°C° 2.2 mm 7 mps 734 mmHg 95%
20:00 0°C° 2.2 mm 8 mps 733 mmHg 96%
21:00 0°C° 2.2 mm 7 mps 732 mmHg 97%
22:00 -1°C° 2.2 mm 7 mps 731 mmHg 97%
23:00 -1°C° 2.2 mm 7 mps 729 mmHg 98%

Day after tomorrow, 21 April, Wednesday

Time Temperature Precipitation Wind Pressure Humidity
00:00 -1°C° 1.6 mm 6 mps 729 mmHg 98%
01:00 -1°C° 1.6 mm 6 mps 728 mmHg 98%
02:00 0°C° 1.6 mm 5 mps 728 mmHg 98%
03:00 -2°C° 1.1 mm 6 mps 728 mmHg 98%
04:00 -2°C° 1.1 mm 6 mps 729 mmHg 98%
05:00 -2°C° 1.1 mm 6 mps 729 mmHg 98%
06:00 -2°C° 0.4 mm 7 mps 730 mmHg 98%
07:00 -2°C° 0.4 mm 7 mps 731 mmHg 97%
08:00 -2°C° 0.4 mm 7 mps 732 mmHg 97%
09:00 -1°C° 0 mm 7 mps 733 mmHg 97%
10:00 -1°C° 0 mm 7 mps 734 mmHg 97%
11:00 +1°C° 0 mm 6 mps 734 mmHg 97%
12:00 +2°C° 0 mm 6 mps 735 mmHg 96%
13:00 +2°C° 0 mm 6 mps 736 mmHg 95%
14:00 +3°C° 0 mm 6 mps 737 mmHg 94%
15:00 +3°C° 0.1 mm 5 mps 737 mmHg 90%
16:00 +4°C° 0.1 mm 4 mps 738 mmHg 86%
17:00 +5°C° 0.1 mm 3 mps 738 mmHg 83%
18:00 +4°C° 0.1 mm 4 mps 739 mmHg 85%
19:00 +4°C° 0.1 mm 4 mps 739 mmHg 87%
20:00 +3°C° 0.1 mm 4 mps 739 mmHg 89%
21:00 +3°C° 0.3 mm 4 mps 740 mmHg 90%
22:00 +3°C° 0.3 mm 4 mps 740 mmHg 92%
23:00 +4°C° 0.3 mm 4 mps 740 mmHg 93%

22 April, Thursday

Time Temperature Precipitation Wind Pressure Humidity
00:00 +3°C° 0 mm 3 mps 740 mmHg 94%
01:00 +3°C° 0 mm 3 mps 740 mmHg 94%
02:00 +2°C° 0 mm 3 mps 740 mmHg 95%
03:00 +3°C° 0 mm 3 mps 741 mmHg 95%
04:00 +3°C° 0 mm 3 mps 741 mmHg 95%
05:00 +4°C° 0 mm 2 mps 741 mmHg 95%
06:00 +4°C° 0 mm 3 mps 741 mmHg 92%
07:00 +7°C° 0 mm 3 mps 742 mmHg 89%
08:00 +7°C° 0 mm 4 mps 742 mmHg 86%
09:00 +8°C° 0 mm 4 mps 742 mmHg 82%
10:00 +9°C° 0 mm 5 mps 742 mmHg 79%
11:00 +10°C° 0 mm 5 mps 742 mmHg 75%
12:00 +12°C° 0.3 mm 5 mps 742 mmHg 70%
13:00 +13°C° 0.3 mm 6 mps 742 mmHg 65%
14:00 +13°C° 0.3 mm 6 mps 742 mmHg 60%
15:00 +13°C° 0.4 mm 6 mps 742 mmHg 64%
16:00 +13°C° 0.4 mm 5 mps 742 mmHg 67%
17:00 +12°C° 0.4 mm 5 mps 743 mmHg 70%
18:00 +11°C° 0.1 mm 4 mps 743 mmHg 76%
19:00 +10°C° 0.1 mm 4 mps 743 mmHg 81%
20:00 +8°C° 0.1 mm 4 mps 743 mmHg 87%
21:00 +7°C° 0.1 mm 4 mps 743 mmHg 88%
22:00 +7°C° 0.1 mm 4 mps 743 mmHg 89%
23:00 +6°C° 0.1 mm 4 mps 743 mmHg 90%

23 April, Friday

Time Temperature Precipitation Wind Pressure Humidity
00:00 +7°C° 0 mm 3 mps 743 mmHg 90%
01:00 +7°C° 0 mm 3 mps 743 mmHg 90%
02:00 +7°C° 0 mm 3 mps 742 mmHg 90%
03:00 +6°C° 0 mm 4 mps 742 mmHg 90%
04:00 +6°C° 0 mm 4 mps 742 mmHg 90%
05:00 +6°C° 0 mm 4 mps 742 mmHg 90%
06:00 +7°C° 0.1 mm 5 mps 742 mmHg 86%
07:00 +8°C° 0.1 mm 5 mps 742 mmHg 82%
08:00 +10°C° 0.1 mm 6 mps 742 mmHg 77%
09:00 +11°C° 0 mm 7 mps 742 mmHg 72%
10:00 +12°C° 0 mm 7 mps 741 mmHg 67%
11:00 +15°C° 0 mm 8 mps 741 mmHg 61%
12:00 +15°C° 0.3 mm 8 mps 741 mmHg 60%
13:00 +15°C° 0.3 mm 8 mps 740 mmHg 59%
14:00 +15°C° 0.3 mm 8 mps 740 mmHg 58%
15:00 +13°C° 0.8 mm 8 mps 739 mmHg 64%
16:00 +12°C° 0.8 mm 7 mps 739 mmHg 70%
17:00 +11°C° 0.8 mm 7 mps 739 mmHg 75%
18:00 +9°C° 1.5 mm 6 mps 739 mmHg 81%
19:00 +6°C° 1.5 mm 5 mps 740 mmHg 87%
20:00 +4°C° 1.5 mm 4 mps 740 mmHg 92%
21:00 +4°C° 0.1 mm 4 mps 741 mmHg 91%
22:00 +3°C° 0.1 mm 4 mps 741 mmHg 90%
23:00 +3°C° 0.1 mm 4 mps 741 mmHg 89%

24 April, Saturday

Time Temperature Precipitation Wind Pressure Humidity
00:00 +3°C° 0 mm 3 mps 741 mmHg 90%
01:00 +3°C° 0 mm 3 mps 741 mmHg 90%
02:00 +2°C° 0 mm 3 mps 740 mmHg 90%
03:00 +2°C° 0 mm 3 mps 740 mmHg 91%
04:00 +2°C° 0 mm 3 mps 741 mmHg 91%
05:00 +2°C° 0 mm 3 mps 741 mmHg 92%
06:00 +1°C° 0 mm 4 mps 741 mmHg 88%
07:00 +2°C° 0 mm 5 mps 741 mmHg 84%
08:00 +3°C° 0 mm 6 mps 741 mmHg 80%
09:00 +4°C° 0 mm 6 mps 741 mmHg 72%
10:00 +4°C° 0 mm 6 mps 741 mmHg 63%
11:00 +5°C° 0 mm 6 mps 741 mmHg 55%
12:00 +5°C° 0 mm 6 mps 741 mmHg 52%
13:00 +7°C° 0 mm 6 mps 741 mmHg 50%
14:00 +7°C° 0 mm 6 mps 741 mmHg 47%
15:00 +7°C° 0.1 mm 6 mps 741 mmHg 52%
16:00 +6°C° 0.1 mm 5 mps 741 mmHg 58%
17:00 +6°C° 0.1 mm 4 mps 741 mmHg 63%
18:00 +5°C° 0.7 mm 4 mps 741 mmHg 73%
19:00 +3°C° 0.7 mm 5 mps 741 mmHg 82%
20:00 +1°C° 0.7 mm 5 mps 741 mmHg 92%
21:00 +1°C° 0 mm 4 mps 741 mmHg 91%
22:00 +1°C° 0 mm 4 mps 741 mmHg 91%
23:00 +1°C° 0 mm 4 mps 741 mmHg 90%
Show more

We Need Your Consent

Meteoprog and our Service Providers may store and access personal data such as cookies, device identifiers or other similar technologies on your device and process such data to personalise content and ads, as well as provide social media features and to analyse the traffic.

  • Store and/or access information on your device

    Cookies, device identifiers or other information can be stored or accessed on your device for the purposes indicated above.

  • Personalised ads and content, ad and content measurement, audience insights, and products development

    Ads and content can be personalised based on a profile. More data can be added to better personalise ads and content. Ad and content performance can be measured. Insights about the audience who saw the ads and content can be derived. Such data can be used to develop or improve user’s experience, systems and software.

By clicking ‘I Agree’ you will allow the use of indicated cookies, device identifiers, web beacons or other similar technologies. Your settings can be changed in the browser on your device.

For certain purposes, legitimate interests may be relied on, rather than consent. You can read more about this in our Privacy and Cookie Policy.